ZPTAI SSAE-SARP

Flight info

Callsign ZPTAI
Flight time N/A
Altitude FL065
Route 3135S05323W 3021S05420W 2930S05443W 2911S05452W 2829S05514W 2755S05546W
Aircraft C152/L-S/N

Departure

Time 2026-04-14 11:29
Airport Arroio Grande Airport (SSAE)

Arrival

Time N/A
Airport Libertador Gral D Jose De San Martin Airport (SARP)
Time Latitude Longitude Altitude Speed Heading
2026-04-14 11:25 -32.22671 -53.07094 165 ft 0 kts 51°
2026-04-14 11:27 -32.22585 -53.06976 165 ft 37 kts 52°
2026-04-14 11:27 -32.22357 -53.06656 210 ft 56 kts 44°
2026-04-14 11:27 -32.22069 -53.06349 313 ft 58 kts 37°
2026-04-14 11:27 -32.21999 -53.06282 331 ft 59 kts 37°
2026-04-14 11:28 -32.21888 -53.06182 357 ft 60 kts 34°
2026-04-14 11:28 -32.21468 -53.06252 425 ft 77 kts 315°
2026-04-14 11:28 -32.21167 -53.06747 558 ft 72 kts 327°
2026-04-14 11:28 -32.20792 -53.07142 658 ft 74 kts 323°
2026-04-14 11:29 -32.20408 -53.07569 730 ft 78 kts 322°
2026-04-14 11:29 -32.20003 -53.08015 791 ft 81 kts 323°
2026-04-14 11:29 -32.19565 -53.08443 839 ft 83 kts 332°
2026-04-14 11:29 -32.19068 -53.08779 885 ft 83 kts 338°
2026-04-14 11:30 -32.18546 -53.09068 923 ft 84 kts 341°
2026-04-14 11:30 -32.18010 -53.09340 957 ft 84 kts 342°
2026-04-14 11:30 -32.17470 -53.09605 988 ft 85 kts 342°
2026-04-14 11:30 -32.16924 -53.09869 1017 ft 85 kts 342°
2026-04-14 11:31 -32.16376 -53.10134 1044 ft 85 kts 343°
2026-04-14 11:31 -32.15828 -53.10398 1070 ft 85 kts 343°
2026-04-14 11:31 -32.15279 -53.10663 1096 ft 85 kts 343°
2026-04-14 11:31 -32.14731 -53.10926 1122 ft 85 kts 343°
2026-04-14 11:32 -32.14181 -53.11191 1147 ft 85 kts 343°
2026-04-14 11:32 -32.13633 -53.11455 1173 ft 85 kts 343°
2026-04-14 11:32 -32.13084 -53.11719 1199 ft 85 kts 343°
2026-04-14 11:32 -32.12536 -53.11982 1224 ft 85 kts 343°
2026-04-14 11:33 -32.11990 -53.12245 1249 ft 85 kts 343°
2026-04-14 11:33 -32.11442 -53.12508 1274 ft 85 kts 343°
2026-04-14 11:33 -32.10897 -53.12770 1299 ft 85 kts 344°
2026-04-14 11:34 -32.09807 -53.13294 1348 ft 85 kts 344°
2026-04-14 11:34 -32.09264 -53.13555 1372 ft 85 kts 344°
2026-04-14 11:34 -32.08720 -53.13816 1397 ft 84 kts 344°
2026-04-14 11:34 -32.08177 -53.14077 1421 ft 84 kts 344°
2026-04-14 11:35 -32.07634 -53.14338 1446 ft 84 kts 344°
2026-04-14 11:35 -32.07093 -53.14598 1470 ft 84 kts 344°
2026-04-14 11:35 -32.06552 -53.14858 1494 ft 84 kts 344°
2026-04-14 11:35 -32.06011 -53.15117 1519 ft 84 kts 344°
2026-04-14 11:36 -32.05471 -53.15377 1544 ft 84 kts 344°
2026-04-14 11:36 -32.04933 -53.15635 1568 ft 84 kts 344°
2026-04-14 11:36 -32.04395 -53.15893 1593 ft 84 kts 344°
2026-04-14 11:36 -32.03858 -53.16151 1619 ft 83 kts 344°
2026-04-14 11:37 -32.03322 -53.16408 1643 ft 83 kts 344°
2026-04-14 11:37 -32.02787 -53.16665 1667 ft 83 kts 345°
2026-04-14 11:37 -32.02254 -53.16921 1692 ft 83 kts 345°
2026-04-14 11:37 -32.01720 -53.17177 1717 ft 83 kts 345°
2026-04-14 11:38 -32.01187 -53.17432 1743 ft 83 kts 345°
2026-04-14 11:38 -32.00655 -53.17688 1769 ft 83 kts 345°
2026-04-14 11:38 -32.00122 -53.17943 1793 ft 83 kts 345°
2026-04-14 11:38 -31.99591 -53.18198 1817 ft 82 kts 345°
2026-04-14 11:39 -31.99063 -53.18451 1840 ft 82 kts 345°
2026-04-14 11:39 -31.98531 -53.18706 1867 ft 83 kts 345°
2026-04-14 11:39 -31.98002 -53.18960 1892 ft 83 kts 345°
2026-04-14 11:39 -31.97471 -53.19214 1916 ft 82 kts 345°
2026-04-14 11:40 -31.96941 -53.19468 1941 ft 82 kts 346°
2026-04-14 11:40 -31.96412 -53.19721 1965 ft 82 kts 346°
2026-04-14 11:40 -31.95883 -53.19975 1990 ft 82 kts 346°
2026-04-14 11:40 -31.95354 -53.20228 2014 ft 82 kts 346°
2026-04-14 11:41 -31.94827 -53.20481 2038 ft 82 kts 346°
2026-04-14 11:41 -31.94297 -53.20734 2064 ft 82 kts 346°
2026-04-14 11:41 -31.93770 -53.20987 2089 ft 82 kts 346°
2026-04-14 11:41 -31.93244 -53.21239 2112 ft 82 kts 346°
2026-04-14 11:42 -31.92717 -53.21491 2138 ft 82 kts 346°
2026-04-14 11:42 -31.92192 -53.21742 2163 ft 82 kts 346°
2026-04-14 11:42 -31.91667 -53.21993 2187 ft 82 kts 347°
2026-04-14 11:42 -31.91143 -53.22244 2213 ft 82 kts 347°
2026-04-14 11:43 -31.90618 -53.22496 2239 ft 82 kts 347°
2026-04-14 11:43 -31.90094 -53.22746 2265 ft 82 kts 347°
2026-04-14 11:43 -31.89568 -53.22998 2290 ft 82 kts 347°
2026-04-14 11:43 -31.89045 -53.23248 2315 ft 82 kts 347°
2026-04-14 11:44 -31.88520 -53.23499 2339 ft 82 kts 347°
2026-04-14 11:44 -31.87995 -53.23750 2363 ft 82 kts 347°
2026-04-14 11:44 -31.87470 -53.24001 2388 ft 82 kts 347°
2026-04-14 11:44 -31.86943 -53.24253 2412 ft 82 kts 347°
2026-04-14 11:45 -31.86418 -53.24504 2436 ft 82 kts 347°
2026-04-14 11:45 -31.85892 -53.24755 2460 ft 82 kts 347°
2026-04-14 11:45 -31.85367 -53.25006 2484 ft 82 kts 347°
2026-04-14 11:45 -31.84842 -53.25257 2508 ft 82 kts 347°
2026-04-14 11:46 -31.84316 -53.25508 2532 ft 82 kts 347°
2026-04-14 11:46 -31.83792 -53.25759 2556 ft 82 kts 347°
2026-04-14 11:46 -31.83267 -53.26010 2580 ft 81 kts 347°
2026-04-14 11:46 -31.82743 -53.26260 2605 ft 81 kts 347°
2026-04-14 11:47 -31.82221 -53.26509 2630 ft 81 kts 347°
2026-04-14 11:47 -31.81697 -53.26759 2655 ft 81 kts 347°
2026-04-14 11:47 -31.81171 -53.27010 2678 ft 82 kts 347°
2026-04-14 11:47 -31.80646 -53.27261 2704 ft 82 kts 347°
2026-04-14 11:48 -31.80120 -53.27513 2730 ft 82 kts 348°
2026-04-14 11:48 -31.79593 -53.27764 2755 ft 82 kts 348°
2026-04-14 11:48 -31.79066 -53.28015 2779 ft 82 kts 348°
2026-04-14 11:48 -31.78538 -53.28267 2804 ft 82 kts 348°
2026-04-14 11:49 -31.78012 -53.28518 2828 ft 82 kts 348°
2026-04-14 11:49 -31.77485 -53.28770 2852 ft 82 kts 348°
2026-04-14 11:49 -31.76956 -53.29022 2877 ft 82 kts 348°
2026-04-14 11:49 -31.76428 -53.29274 2901 ft 82 kts 348°
2026-04-14 11:50 -31.75901 -53.29525 2925 ft 82 kts 348°
2026-04-14 11:50 -31.75373 -53.29776 2949 ft 82 kts 348°
2026-04-14 11:50 -31.74845 -53.30028 2974 ft 82 kts 348°
2026-04-14 11:51 -31.73789 -53.30532 3026 ft 82 kts 348°
2026-04-14 11:51 -31.73260 -53.30784 3051 ft 82 kts 348°
2026-04-14 11:51 -31.72732 -53.31035 3076 ft 82 kts 348°
2026-04-14 11:51 -31.72204 -53.31287 3102 ft 82 kts 348°
2026-04-14 11:52 -31.71677 -53.31538 3126 ft 82 kts 348°
2026-04-14 11:52 -31.71148 -53.31790 3151 ft 82 kts 348°
2026-04-14 11:52 -31.70619 -53.32042 3175 ft 82 kts 348°
2026-04-14 11:52 -31.70092 -53.32293 3199 ft 82 kts 348°
2026-04-14 11:53 -31.69567 -53.32543 3227 ft 81 kts 348°
2026-04-14 11:53 -31.69045 -53.32791 3250 ft 81 kts 348°
2026-04-14 11:53 -31.68524 -53.33039 3273 ft 81 kts 348°
2026-04-14 11:53 -31.68003 -53.33287 3297 ft 81 kts 348°
2026-04-14 11:54 -31.67484 -53.33534 3322 ft 81 kts 348°
2026-04-14 11:54 -31.66966 -53.33780 3348 ft 81 kts 348°
2026-04-14 11:54 -31.66448 -53.34027 3373 ft 80 kts 348°
2026-04-14 11:54 -31.65931 -53.34273 3398 ft 80 kts 348°
2026-04-14 11:55 -31.65415 -53.34518 3423 ft 80 kts 348°
2026-04-14 11:55 -31.64900 -53.34763 3447 ft 80 kts 348°
2026-04-14 11:55 -31.64385 -53.35008 3471 ft 80 kts 348°
2026-04-14 11:55 -31.63868 -53.35254 3497 ft 81 kts 348°
2026-04-14 11:56 -31.63349 -53.35501 3524 ft 81 kts 348°
2026-04-14 11:56 -31.62829 -53.35748 3551 ft 81 kts 348°
2026-04-14 11:56 -31.62308 -53.35995 3577 ft 81 kts 348°
2026-04-14 11:56 -31.61786 -53.36243 3603 ft 81 kts 348°
2026-04-14 11:57 -31.61262 -53.36492 3628 ft 81 kts 348°
2026-04-14 11:57 -31.60739 -53.36740 3653 ft 81 kts 348°
2026-04-14 11:57 -31.60214 -53.36989 3678 ft 82 kts 348°
2026-04-14 11:57 -31.59689 -53.37239 3703 ft 82 kts 348°
2026-04-14 11:58 -31.59165 -53.37487 3727 ft 82 kts 348°
2026-04-14 11:58 -31.58638 -53.37737 3752 ft 82 kts 348°
2026-04-14 11:58 -31.58112 -53.37986 3777 ft 82 kts 348°
2026-04-14 11:58 -31.57595 -53.38263 3802 ft 84 kts 337°
2026-04-14 11:59 -31.57105 -53.38637 3832 ft 84 kts 336°
2026-04-14 11:59 -31.56618 -53.39018 3857 ft 84 kts 336°
2026-04-14 11:59 -31.56132 -53.39401 3883 ft 84 kts 335°
2026-04-14 11:59 -31.55646 -53.39784 3909 ft 84 kts 335°
2026-04-14 12:00 -31.55160 -53.40168 3935 ft 84 kts 335°
2026-04-14 12:00 -31.54675 -53.40552 3960 ft 85 kts 335°
2026-04-14 12:00 -31.54188 -53.40936 3986 ft 84 kts 335°
2026-04-14 12:00 -31.53702 -53.41321 4012 ft 84 kts 335°
2026-04-14 12:01 -31.53216 -53.41704 4037 ft 84 kts 335°
2026-04-14 12:01 -31.52730 -53.42088 4062 ft 84 kts 335°
2026-04-14 12:01 -31.52244 -53.42472 4087 ft 84 kts 335°
2026-04-14 12:01 -31.51758 -53.42856 4112 ft 84 kts 335°
2026-04-14 12:02 -31.51272 -53.43239 4137 ft 84 kts 335°
2026-04-14 12:02 -31.50785 -53.43624 4162 ft 84 kts 335°
2026-04-14 12:02 -31.50301 -53.44006 4187 ft 84 kts 335°
2026-04-14 12:02 -31.49816 -53.44389 4212 ft 84 kts 335°
2026-04-14 12:03 -31.49332 -53.44771 4236 ft 84 kts 335°
2026-04-14 12:03 -31.48848 -53.45153 4260 ft 84 kts 335°
2026-04-14 12:03 -31.48362 -53.45536 4285 ft 84 kts 335°
2026-04-14 12:03 -31.47879 -53.45918 4310 ft 84 kts 335°
2026-04-14 12:04 -31.47394 -53.46300 4336 ft 84 kts 335°
2026-04-14 12:04 -31.46909 -53.46683 4362 ft 84 kts 335°
2026-04-14 12:04 -31.46423 -53.47065 4388 ft 84 kts 335°
2026-04-14 12:04 -31.45938 -53.47448 4412 ft 84 kts 335°
2026-04-14 12:05 -31.45452 -53.47832 4438 ft 84 kts 335°
2026-04-14 12:05 -31.44965 -53.48215 4464 ft 84 kts 335°
2026-04-14 12:05 -31.44478 -53.48599 4489 ft 85 kts 335°
2026-04-14 12:05 -31.43991 -53.48983 4515 ft 85 kts 335°
2026-04-14 12:06 -31.43504 -53.49367 4541 ft 85 kts 335°
2026-04-14 12:06 -31.43018 -53.49750 4566 ft 85 kts 335°
2026-04-14 12:06 -31.42530 -53.50134 4592 ft 85 kts 335°
2026-04-14 12:06 -31.42042 -53.50519 4618 ft 85 kts 335°
2026-04-14 12:07 -31.41554 -53.50903 4643 ft 85 kts 335°
2026-04-14 12:07 -31.41066 -53.51287 4669 ft 85 kts 335°
2026-04-14 12:07 -31.40579 -53.51671 4695 ft 85 kts 335°
2026-04-14 12:07 -31.40089 -53.52056 4720 ft 85 kts 335°
2026-04-14 12:08 -31.39601 -53.52441 4746 ft 85 kts 334°
2026-04-14 12:08 -31.39113 -53.52825 4771 ft 85 kts 334°
2026-04-14 12:08 -31.38623 -53.53210 4797 ft 85 kts 334°
2026-04-14 12:08 -31.38135 -53.53595 4822 ft 85 kts 334°
2026-04-14 12:09 -31.37645 -53.53980 4847 ft 85 kts 334°
2026-04-14 12:09 -31.37157 -53.54364 4873 ft 85 kts 334°
2026-04-14 12:09 -31.36666 -53.54750 4898 ft 85 kts 334°
2026-04-14 12:09 -31.36177 -53.55135 4922 ft 85 kts 334°
2026-04-14 12:10 -31.35687 -53.55520 4947 ft 85 kts 334°
2026-04-14 12:10 -31.35198 -53.55904 4972 ft 85 kts 334°
2026-04-14 12:10 -31.34707 -53.56291 4997 ft 85 kts 334°
2026-04-14 12:10 -31.34217 -53.56676 5022 ft 85 kts 334°
2026-04-14 12:11 -31.33727 -53.57061 5046 ft 85 kts 334°
2026-04-14 12:11 -31.33238 -53.57445 5070 ft 85 kts 334°
2026-04-14 12:11 -31.32749 -53.57829 5094 ft 85 kts 334°
2026-04-14 12:11 -31.32261 -53.58213 5118 ft 85 kts 334°
2026-04-14 12:12 -31.31773 -53.58597 5142 ft 85 kts 334°
2026-04-14 12:12 -31.31286 -53.58979 5165 ft 85 kts 334°
2026-04-14 12:12 -31.30798 -53.59362 5189 ft 85 kts 334°
2026-04-14 12:12 -31.30311 -53.59745 5214 ft 85 kts 333°
2026-04-14 12:13 -31.29825 -53.60127 5240 ft 84 kts 333°
2026-04-14 12:13 -31.29338 -53.60509 5265 ft 84 kts 333°
2026-04-14 12:13 -31.28851 -53.60891 5289 ft 84 kts 333°
2026-04-14 12:13 -31.28364 -53.61273 5312 ft 85 kts 333°
2026-04-14 12:14 -31.27878 -53.61655 5337 ft 84 kts 333°
2026-04-14 12:14 -31.27392 -53.62036 5362 ft 84 kts 333°
2026-04-14 12:14 -31.26905 -53.62418 5387 ft 84 kts 333°
2026-04-14 12:14 -31.26420 -53.62799 5412 ft 84 kts 333°
2026-04-14 12:15 -31.25937 -53.63178 5438 ft 84 kts 333°
2026-04-14 12:15 -31.25453 -53.63558 5463 ft 84 kts 333°
2026-04-14 12:15 -31.24968 -53.63938 5489 ft 84 kts 333°
2026-04-14 12:15 -31.24483 -53.64318 5514 ft 84 kts 333°
2026-04-14 12:16 -31.23998 -53.64699 5540 ft 84 kts 333°
2026-04-14 12:16 -31.23515 -53.65078 5566 ft 84 kts 333°
2026-04-14 12:16 -31.23031 -53.65457 5591 ft 84 kts 333°
2026-04-14 12:16 -31.22546 -53.65837 5617 ft 84 kts 333°
2026-04-14 12:17 -31.22061 -53.66217 5642 ft 84 kts 332°
2026-04-14 12:17 -31.21573 -53.66599 5666 ft 85 kts 332°
2026-04-14 12:17 -31.21083 -53.66983 5692 ft 85 kts 332°
2026-04-14 12:17 -31.20594 -53.67366 5720 ft 85 kts 332°
2026-04-14 12:18 -31.20107 -53.67748 5746 ft 85 kts 332°
2026-04-14 12:18 -31.19615 -53.68133 5766 ft 86 kts 332°
2026-04-14 12:18 -31.19120 -53.68521 5792 ft 86 kts 332°
2026-04-14 12:18 -31.18626 -53.68907 5818 ft 86 kts 332°
2026-04-14 12:19 -31.18130 -53.69296 5844 ft 86 kts 331°
2026-04-14 12:19 -31.17635 -53.69683 5869 ft 86 kts 331°
2026-04-14 12:19 -31.17138 -53.70072 5894 ft 86 kts 331°
2026-04-14 12:19 -31.16641 -53.70462 5919 ft 86 kts 331°
2026-04-14 12:20 -31.16143 -53.70851 5944 ft 86 kts 331°
2026-04-14 12:20 -31.15644 -53.71241 5969 ft 86 kts 331°
2026-04-14 12:20 -31.15146 -53.71631 5994 ft 87 kts 330°
2026-04-14 12:20 -31.14654 -53.72018 6042 ft 82 kts 333°
2026-04-14 12:21 -31.14193 -53.72376 6075 ft 79 kts 334°
2026-04-14 12:21 -31.13736 -53.72731 6096 ft 79 kts 333°
2026-04-14 12:21 -31.13283 -53.73084 6118 ft 78 kts 333°
2026-04-14 12:21 -31.12834 -53.73435 6141 ft 77 kts 333°
2026-04-14 12:22 -31.12390 -53.73783 6163 ft 77 kts 333°
2026-04-14 12:22 -31.11949 -53.74127 6187 ft 76 kts 333°
2026-04-14 12:22 -31.11511 -53.74469 6211 ft 76 kts 333°
2026-04-14 12:22 -31.11214 -53.74701 6230 ft 74 kts 332°
2026-04-14 12:23 -31.10660 -53.75133 6266 ft 73 kts 332°
2026-04-14 12:23 -31.10239 -53.75462 6296 ft 74 kts 332°
2026-04-14 12:23 -31.09810 -53.75797 6339 ft 75 kts 332°
2026-04-14 12:23 -31.09375 -53.76136 6376 ft 76 kts 332°
2026-04-14 12:24 -31.08932 -53.76482 6412 ft 77 kts 332°
2026-04-14 12:24 -31.08633 -53.76716 6453 ft 75 kts 331°
2026-04-14 12:24 -31.08064 -53.77161 6508 ft 76 kts 332°
2026-04-14 12:24 -31.07620 -53.77506 6524 ft 78 kts 331°
2026-04-14 12:25 -31.07161 -53.77863 6525 ft 81 kts 331°
2026-04-14 12:25 -31.06687 -53.78232 6518 ft 83 kts 331°
2026-04-14 12:25 -31.06204 -53.78608 6511 ft 84 kts 331°
2026-04-14 12:25 -31.05717 -53.78988 6505 ft 85 kts 331°
2026-04-14 12:26 -31.05228 -53.79370 6503 ft 85 kts 331°
2026-04-14 12:26 -31.04740 -53.79751 6502 ft 84 kts 331°
2026-04-14 12:26 -31.04252 -53.80131 6502 ft 84 kts 331°
2026-04-14 12:26 -31.03767 -53.80509 6502 ft 84 kts 331°
2026-04-14 12:27 -31.03282 -53.80888 6503 ft 84 kts 331°
2026-04-14 12:27 -31.02797 -53.81266 6503 ft 84 kts 331°
2026-04-14 12:27 -31.02311 -53.81644 6503 ft 84 kts 331°
2026-04-14 12:27 -31.01827 -53.82022 6503 ft 84 kts 331°
2026-04-14 12:28 -31.01341 -53.82400 6503 ft 84 kts 331°
2026-04-14 12:28 -31.00857 -53.82778 6502 ft 84 kts 331°
2026-04-14 12:28 -31.00371 -53.83156 6503 ft 84 kts 331°
2026-04-14 12:28 -30.99887 -53.83534 6503 ft 84 kts 331°
2026-04-14 12:29 -30.99401 -53.83912 6503 ft 84 kts 331°
2026-04-14 12:29 -30.98915 -53.84291 6503 ft 84 kts 331°
2026-04-14 12:29 -30.98428 -53.84670 6503 ft 84 kts 331°
2026-04-14 12:29 -30.97942 -53.85049 6503 ft 84 kts 331°
2026-04-14 12:30 -30.97455 -53.85428 6503 ft 84 kts 331°
2026-04-14 12:30 -30.96968 -53.85807 6503 ft 84 kts 332°
2026-04-14 12:30 -30.96480 -53.86187 6503 ft 85 kts 332°
2026-04-14 12:30 -30.95993 -53.86566 6503 ft 85 kts 332°
2026-04-14 12:31 -30.95503 -53.86947 6503 ft 85 kts 332°
2026-04-14 12:31 -30.95016 -53.87326 6503 ft 85 kts 332°
2026-04-14 12:31 -30.94526 -53.87707 6503 ft 85 kts 332°
2026-04-14 12:31 -30.94037 -53.88087 6503 ft 85 kts 332°
2026-04-14 12:32 -30.93549 -53.88467 6505 ft 85 kts 331°
2026-04-14 12:32 -30.93060 -53.88848 6503 ft 85 kts 331°
2026-04-14 12:32 -30.92573 -53.89226 6502 ft 85 kts 331°
2026-04-14 12:32 -30.92083 -53.89607 6502 ft 84 kts 331°
2026-04-14 12:33 -30.91597 -53.89985 6502 ft 84 kts 331°
2026-04-14 12:33 -30.91110 -53.90364 6503 ft 84 kts 331°
2026-04-14 12:33 -30.90622 -53.90743 6503 ft 84 kts 331°
2026-04-14 12:33 -30.90134 -53.91122 6503 ft 84 kts 331°
2026-04-14 12:34 -30.89648 -53.91500 6503 ft 84 kts 331°
2026-04-14 12:34 -30.89160 -53.91879 6503 ft 84 kts 331°
2026-04-14 12:34 -30.88672 -53.92258 6503 ft 85 kts 331°
2026-04-14 12:34 -30.88184 -53.92637 6503 ft 85 kts 331°
2026-04-14 12:35 -30.87695 -53.93016 6503 ft 85 kts 331°
2026-04-14 12:35 -30.87209 -53.93394 6503 ft 85 kts 331°
2026-04-14 12:35 -30.86720 -53.93774 6503 ft 84 kts 331°
2026-04-14 12:35 -30.86233 -53.94152 6503 ft 84 kts 331°
2026-04-14 12:36 -30.85745 -53.94531 6503 ft 84 kts 331°
2026-04-14 12:36 -30.85257 -53.94909 6503 ft 84 kts 331°
2026-04-14 12:36 -30.84769 -53.95288 6503 ft 85 kts 331°
2026-04-14 12:36 -30.84280 -53.95667 6503 ft 85 kts 331°
2026-04-14 12:37 -30.83793 -53.96045 6503 ft 85 kts 331°
2026-04-14 12:37 -30.83305 -53.96424 6503 ft 85 kts 331°
2026-04-14 12:37 -30.82816 -53.96803 6503 ft 85 kts 331°
2026-04-14 12:37 -30.82328 -53.97182 6503 ft 85 kts 331°
2026-04-14 12:38 -30.81351 -53.97939 6503 ft 85 kts 331°
2026-04-14 12:38 -30.80863 -53.98318 6503 ft 85 kts 331°
2026-04-14 12:38 -30.80375 -53.98696 6503 ft 85 kts 331°
2026-04-14 12:39 -30.79886 -53.99075 6503 ft 85 kts 331°
2026-04-14 12:39 -30.79398 -53.99453 6503 ft 85 kts 331°
2026-04-14 12:39 -30.78908 -53.99833 6503 ft 85 kts 331°
2026-04-14 12:39 -30.78419 -54.00212 6503 ft 85 kts 331°
2026-04-14 12:40 -30.77929 -54.00591 6503 ft 85 kts 332°
2026-04-14 12:40 -30.77441 -54.00970 6503 ft 85 kts 332°
2026-04-14 12:40 -30.76951 -54.01349 6503 ft 85 kts 332°
2026-04-14 12:40 -30.76459 -54.01730 6503 ft 85 kts 332°
2026-04-14 12:41 -30.75968 -54.02111 6500 ft 86 kts 332°
2026-04-14 12:41 -30.75473 -54.02493 6504 ft 85 kts 332°
2026-04-14 12:41 -30.74981 -54.02874 6505 ft 85 kts 332°
2026-04-14 12:41 -30.74487 -54.03257 6503 ft 85 kts 332°
2026-04-14 12:42 -30.73993 -54.03639 6503 ft 86 kts 332°
2026-04-14 12:42 -30.73500 -54.04021 6503 ft 86 kts 332°
2026-04-14 12:42 -30.73005 -54.04404 6503 ft 86 kts 332°
2026-04-14 12:42 -30.72511 -54.04786 6503 ft 86 kts 332°
2026-04-14 12:43 -30.72016 -54.05169 6503 ft 86 kts 332°
2026-04-14 12:43 -30.71521 -54.05552 6503 ft 86 kts 332°
2026-04-14 12:43 -30.71026 -54.05935 6503 ft 86 kts 332°
2026-04-14 12:43 -30.70530 -54.06318 6503 ft 86 kts 332°
2026-04-14 12:44 -30.70034 -54.06701 6503 ft 86 kts 332°
2026-04-14 12:44 -30.69538 -54.07085 6503 ft 86 kts 332°
2026-04-14 12:44 -30.69043 -54.07467 6503 ft 86 kts 332°
2026-04-14 12:45 -30.68049 -54.08237 6494 ft 88 kts 333°
2026-04-14 12:45 -30.67532 -54.08636 6494 ft 89 kts 333°
2026-04-14 12:45 -30.67015 -54.09036 6506 ft 90 kts 333°
2026-04-14 12:45 -30.66494 -54.09439 6509 ft 91 kts 333°
2026-04-14 12:46 -30.65968 -54.09844 6509 ft 91 kts 333°
2026-04-14 12:46 -30.65439 -54.10253 6506 ft 92 kts 333°
2026-04-14 12:46 -30.64908 -54.10663 6504 ft 92 kts 333°
2026-04-14 12:46 -30.64375 -54.11075 6503 ft 92 kts 333°
2026-04-14 12:47 -30.63843 -54.11485 6503 ft 92 kts 333°
2026-04-14 12:47 -30.63310 -54.11897 6503 ft 92 kts 333°
2026-04-14 12:47 -30.62777 -54.12308 6503 ft 92 kts 333°
2026-04-14 12:47 -30.62245 -54.12718 6503 ft 92 kts 333°
2026-04-14 12:48 -30.61714 -54.13128 6503 ft 92 kts 333°
2026-04-14 12:48 -30.61181 -54.13539 6503 ft 92 kts 333°
2026-04-14 12:48 -30.60648 -54.13950 6503 ft 92 kts 333°
2026-04-14 12:48 -30.60117 -54.14360 6505 ft 92 kts 333°
2026-04-14 12:49 -30.59587 -54.14768 6503 ft 92 kts 333°
2026-04-14 12:49 -30.59056 -54.15178 6502 ft 92 kts 333°
2026-04-14 12:49 -30.58526 -54.15586 6502 ft 92 kts 333°
2026-04-14 12:49 -30.57996 -54.15995 6503 ft 92 kts 332°
2026-04-14 12:50 -30.57468 -54.16402 6503 ft 91 kts 332°
2026-04-14 12:50 -30.56409 -54.17218 6503 ft 91 kts 332°
2026-04-14 12:50 -30.55881 -54.17625 6503 ft 91 kts 332°
2026-04-14 12:51 -30.55353 -54.18031 6503 ft 91 kts 332°
2026-04-14 12:51 -30.54824 -54.18439 6503 ft 91 kts 332°
2026-04-14 12:51 -30.54295 -54.18847 6503 ft 91 kts 332°
2026-04-14 12:51 -30.53766 -54.19254 6503 ft 91 kts 332°
2026-04-14 12:52 -30.53238 -54.19660 6503 ft 91 kts 332°
2026-04-14 12:52 -30.52708 -54.20068 6503 ft 91 kts 332°
2026-04-14 12:52 -30.52179 -54.20475 6503 ft 91 kts 332°
2026-04-14 12:52 -30.51651 -54.20882 6503 ft 91 kts 333°
2026-04-14 12:53 -30.51122 -54.21289 6503 ft 92 kts 333°
2026-04-14 12:53 -30.50592 -54.21696 6503 ft 92 kts 333°
2026-04-14 12:53 -30.50063 -54.22104 6503 ft 92 kts 333°
2026-04-14 12:53 -30.49534 -54.22511 6503 ft 92 kts 333°
2026-04-14 12:54 -30.49004 -54.22918 6503 ft 92 kts 333°
2026-04-14 12:54 -30.48475 -54.23325 6503 ft 92 kts 333°
2026-04-14 12:54 -30.47946 -54.23732 6503 ft 92 kts 333°
2026-04-14 12:54 -30.47415 -54.24140 6503 ft 92 kts 333°
2026-04-14 12:55 -30.46885 -54.24547 6503 ft 92 kts 333°
2026-04-14 12:55 -30.46356 -54.24954 6503 ft 92 kts 333°
2026-04-14 12:55 -30.45826 -54.25361 6503 ft 92 kts 333°
2026-04-14 12:55 -30.45296 -54.25768 6503 ft 92 kts 333°
2026-04-14 12:56 -30.44767 -54.26175 6503 ft 92 kts 333°
2026-04-14 12:56 -30.44237 -54.26581 6503 ft 92 kts 333°
2026-04-14 12:56 -30.43707 -54.26989 6503 ft 92 kts 333°
2026-04-14 12:56 -30.43176 -54.27396 6503 ft 92 kts 333°
2026-04-14 12:57 -30.42647 -54.27802 6503 ft 92 kts 333°
2026-04-14 12:57 -30.42117 -54.28209 6503 ft 92 kts 333°
2026-04-14 12:57 -30.41587 -54.28617 6503 ft 92 kts 333°
2026-04-14 12:57 -30.41056 -54.29024 6503 ft 92 kts 333°
2026-04-14 12:58 -30.40526 -54.29430 6502 ft 92 kts 332°
2026-04-14 12:58 -30.39995 -54.29838 6503 ft 92 kts 332°
2026-04-14 12:58 -30.39465 -54.30245 6504 ft 92 kts 332°
2026-04-14 12:58 -30.38933 -54.30653 6503 ft 92 kts 332°
2026-04-14 12:59 -30.38401 -54.31060 6503 ft 92 kts 332°
2026-04-14 12:59 -30.37869 -54.31468 6503 ft 92 kts 332°
2026-04-14 12:59 -30.37337 -54.31876 6503 ft 92 kts 332°
2026-04-14 12:59 -30.36805 -54.32284 6503 ft 92 kts 332°
2026-04-14 13:00 -30.36272 -54.32692 6503 ft 92 kts 332°
2026-04-14 13:00 -30.35740 -54.33100 6503 ft 92 kts 332°
2026-04-14 13:00 -30.35207 -54.33507 6503 ft 92 kts 332°
2026-04-14 13:00 -30.34675 -54.33912 6503 ft 92 kts 333°
2026-04-14 13:01 -30.34110 -54.34218 6514 ft 89 kts 343°
2026-04-14 13:01 -30.33534 -54.34486 6509 ft 90 kts 344°
2026-04-14 13:01 -30.32954 -54.34747 6506 ft 90 kts 345°
2026-04-14 13:01 -30.32371 -54.35007 6504 ft 90 kts 345°
2026-04-14 13:02 -30.31787 -54.35266 6501 ft 90 kts 345°
2026-04-14 13:02 -30.31204 -54.35525 6502 ft 90 kts 345°
2026-04-14 13:02 -30.30620 -54.35783 6504 ft 90 kts 345°
2026-04-14 13:02 -30.30036 -54.36041 6503 ft 90 kts 345°
2026-04-14 13:03 -30.29452 -54.36299 6503 ft 90 kts 345°
2026-04-14 13:03 -30.28868 -54.36557 6503 ft 90 kts 345°
2026-04-14 13:03 -30.28285 -54.36815 6503 ft 90 kts 345°
2026-04-14 13:03 -30.27701 -54.37073 6503 ft 90 kts 345°
2026-04-14 13:04 -30.27116 -54.37331 6503 ft 90 kts 345°
2026-04-14 13:04 -30.26532 -54.37589 6504 ft 90 kts 345°
2026-04-14 13:04 -30.25950 -54.37846 6504 ft 90 kts 345°
2026-04-14 13:04 -30.25367 -54.38103 6502 ft 90 kts 345°
2026-04-14 13:05 -30.24787 -54.38359 6502 ft 90 kts 345°
2026-04-14 13:05 -30.24206 -54.38615 6502 ft 90 kts 345°
2026-04-14 13:05 -30.23626 -54.38871 6503 ft 89 kts 345°
2026-04-14 13:05 -30.23047 -54.39126 6502 ft 90 kts 345°
2026-04-14 13:06 -30.22464 -54.39384 6503 ft 90 kts 345°
2026-04-14 13:06 -30.21882 -54.39640 6503 ft 90 kts 345°
2026-04-14 13:06 -30.21303 -54.39896 6503 ft 90 kts 345°
2026-04-14 13:06 -30.20722 -54.40152 6503 ft 90 kts 345°
2026-04-14 13:07 -30.20140 -54.40409 6503 ft 90 kts 345°
2026-04-14 13:07 -30.19559 -54.40665 6503 ft 90 kts 345°
2026-04-14 13:07 -30.18978 -54.40921 6503 ft 90 kts 345°
2026-04-14 13:07 -30.18396 -54.41177 6503 ft 90 kts 345°
2026-04-14 13:08 -30.17815 -54.41434 6503 ft 90 kts 345°
2026-04-14 13:08 -30.17233 -54.41690 6503 ft 90 kts 345°
2026-04-14 13:08 -30.16650 -54.41947 6503 ft 90 kts 345°
2026-04-14 13:08 -30.16070 -54.42202 6503 ft 90 kts 345°
2026-04-14 13:09 -30.15488 -54.42458 6503 ft 90 kts 345°
2026-04-14 13:09 -30.14907 -54.42715 6503 ft 90 kts 345°
2026-04-14 13:09 -30.14323 -54.42972 6502 ft 90 kts 345°
2026-04-14 13:09 -30.13741 -54.43228 6503 ft 90 kts 345°
2026-04-14 13:10 -30.13158 -54.43485 6504 ft 90 kts 345°
2026-04-14 13:10 -30.12576 -54.43741 6504 ft 90 kts 345°
2026-04-14 13:10 -30.11991 -54.43998 6503 ft 90 kts 345°
2026-04-14 13:10 -30.11409 -54.44254 6503 ft 90 kts 345°
2026-04-14 13:11 -30.10826 -54.44511 6503 ft 90 kts 345°
2026-04-14 13:11 -30.10241 -54.44768 6503 ft 90 kts 345°
2026-04-14 13:11 -30.09658 -54.45025 6503 ft 90 kts 345°
2026-04-14 13:11 -30.09074 -54.45282 6503 ft 90 kts 345°
2026-04-14 13:12 -30.08491 -54.45538 6503 ft 90 kts 345°
2026-04-14 13:12 -30.07906 -54.45795 6503 ft 90 kts 345°
2026-04-14 13:12 -30.07322 -54.46052 6503 ft 90 kts 345°
2026-04-14 13:12 -30.06737 -54.46309 6503 ft 90 kts 345°
2026-04-14 13:13 -30.06152 -54.46566 6503 ft 90 kts 345°
2026-04-14 13:13 -30.05569 -54.46823 6505 ft 90 kts 345°
2026-04-14 13:13 -30.04986 -54.47079 6503 ft 90 kts 345°
2026-04-14 13:13 -30.04402 -54.47335 6501 ft 90 kts 345°
2026-04-14 13:14 -30.03819 -54.47591 6501 ft 90 kts 345°
2026-04-14 13:14 -30.03235 -54.47848 6502 ft 90 kts 345°
2026-04-14 13:14 -30.02654 -54.48103 6503 ft 90 kts 345°
2026-04-14 13:14 -30.02069 -54.48360 6503 ft 90 kts 345°
2026-04-14 13:15 -30.01487 -54.48616 6503 ft 90 kts 345°
2026-04-14 13:15 -30.00901 -54.48873 6503 ft 90 kts 345°
2026-04-14 13:15 -30.00318 -54.49129 6503 ft 90 kts 345°
2026-04-14 13:15 -29.99732 -54.49386 6502 ft 90 kts 345°
2026-04-14 13:16 -29.99145 -54.49644 6503 ft 90 kts 345°
2026-04-14 13:16 -29.98559 -54.49901 6504 ft 90 kts 345°
2026-04-14 13:16 -29.97971 -54.50159 6504 ft 91 kts 345°
2026-04-14 13:16 -29.97383 -54.50417 6503 ft 91 kts 345°
2026-04-14 13:17 -29.96797 -54.50674 6503 ft 91 kts 345°
2026-04-14 13:17 -29.96208 -54.50932 6503 ft 91 kts 345°
2026-04-14 13:17 -29.95620 -54.51190 6503 ft 91 kts 345°
2026-04-14 13:17 -29.95031 -54.51449 6503 ft 91 kts 345°
2026-04-14 13:18 -29.94443 -54.51706 6503 ft 91 kts 345°
2026-04-14 13:18 -29.93856 -54.51964 6503 ft 91 kts 345°
2026-04-14 13:18 -29.93268 -54.52222 6503 ft 91 kts 345°
2026-04-14 13:18 -29.92680 -54.52479 6503 ft 91 kts 345°
2026-04-14 13:19 -29.92091 -54.52737 6503 ft 91 kts 345°
2026-04-14 13:19 -29.91502 -54.52996 6503 ft 91 kts 345°
2026-04-14 13:19 -29.90915 -54.53253 6503 ft 91 kts 345°
2026-04-14 13:19 -29.90326 -54.53511 6503 ft 91 kts 345°
2026-04-14 13:20 -29.89738 -54.53768 6503 ft 91 kts 345°
2026-04-14 13:20 -29.89148 -54.54027 6503 ft 91 kts 345°
2026-04-14 13:20 -29.88559 -54.54284 6503 ft 91 kts 345°
2026-04-14 13:20 -29.87974 -54.54540 6513 ft 88 kts 344°
2026-04-14 13:21 -29.87405 -54.54789 6507 ft 88 kts 343°
2026-04-14 13:21 -29.86836 -54.55038 6498 ft 87 kts 343°
2026-04-14 13:21 -29.86271 -54.55285 6495 ft 86 kts 343°
2026-04-14 13:21 -29.85714 -54.55529 6495 ft 86 kts 343°
2026-04-14 13:22 -29.85160 -54.55772 6497 ft 85 kts 343°
2026-04-14 13:22 -29.84610 -54.56012 6499 ft 85 kts 343°
2026-04-14 13:22 -29.84061 -54.56252 6499 ft 84 kts 343°
2026-04-14 13:22 -29.83513 -54.56492 6499 ft 84 kts 343°
2026-04-14 13:23 -29.82966 -54.56731 6499 ft 84 kts 343°
2026-04-14 13:23 -29.82419 -54.56970 6499 ft 84 kts 343°
2026-04-14 13:23 -29.81873 -54.57209 6499 ft 84 kts 343°
2026-04-14 13:23 -29.81327 -54.57448 6499 ft 84 kts 343°
2026-04-14 13:24 -29.80782 -54.57686 6499 ft 84 kts 343°
2026-04-14 13:24 -29.79692 -54.58163 6499 ft 84 kts 342°
2026-04-14 13:24 -29.79146 -54.58401 6498 ft 84 kts 343°
2026-04-14 13:25 -29.78601 -54.58639 6499 ft 84 kts 343°
2026-04-14 13:25 -29.78056 -54.58878 6500 ft 84 kts 343°
2026-04-14 13:26 -29.76421 -54.59592 6499 ft 84 kts 343°
2026-04-14 13:26 -29.75875 -54.59830 6499 ft 84 kts 343°
2026-04-14 13:26 -29.75314 -54.60077 6471 ft 90 kts 344°
2026-04-14 13:26 -29.74708 -54.60340 6472 ft 95 kts 339°
2026-04-14 13:27 -29.74095 -54.60610 6504 ft 95 kts 339°
2026-04-14 13:27 -29.73472 -54.60884 6515 ft 97 kts 339°
2026-04-14 13:27 -29.72838 -54.61162 6521 ft 98 kts 342°
2026-04-14 13:27 -29.72197 -54.61440 6511 ft 100 kts 342°
2026-04-14 13:28 -29.71548 -54.61722 6503 ft 100 kts 342°
2026-04-14 13:28 -29.70898 -54.62004 6498 ft 100 kts 343°
2026-04-14 13:28 -29.70251 -54.62287 6500 ft 99 kts 343°
2026-04-14 13:28 -29.69609 -54.62567 6494 ft 99 kts 343°
2026-04-14 13:29 -29.68969 -54.62846 6493 ft 99 kts 343°
2026-04-14 13:29 -29.68330 -54.63124 6493 ft 98 kts 343°
2026-04-14 13:29 -29.67693 -54.63402 6495 ft 98 kts 343°
2026-04-14 13:29 -29.67059 -54.63678 6496 ft 98 kts 343°
2026-04-14 13:30 -29.66424 -54.63955 6496 ft 98 kts 343°
2026-04-14 13:30 -29.65790 -54.64231 6496 ft 98 kts 343°
2026-04-14 13:30 -29.65154 -54.64508 6496 ft 98 kts 343°
2026-04-14 13:30 -29.64520 -54.64785 6496 ft 98 kts 343°
2026-04-14 13:31 -29.63885 -54.65061 6496 ft 98 kts 343°
2026-04-14 13:31 -29.63249 -54.65338 6496 ft 98 kts 343°
2026-04-14 13:31 -29.62615 -54.65614 6496 ft 98 kts 343°
2026-04-14 13:31 -29.61980 -54.65891 6496 ft 98 kts 343°
2026-04-14 13:32 -29.61343 -54.66168 6493 ft 98 kts 343°
2026-04-14 13:32 -29.60704 -54.66446 6497 ft 98 kts 343°
2026-04-14 13:32 -29.60066 -54.66724 6497 ft 98 kts 343°
2026-04-14 13:32 -29.59428 -54.67002 6497 ft 99 kts 343°
2026-04-14 13:33 -29.58787 -54.67280 6496 ft 99 kts 343°
2026-04-14 13:33 -29.58147 -54.67559 6496 ft 99 kts 343°
2026-04-14 13:33 -29.57506 -54.67837 6495 ft 99 kts 343°
2026-04-14 13:33 -29.56864 -54.68117 6496 ft 99 kts 343°
2026-04-14 13:34 -29.55580 -54.68675 6496 ft 99 kts 343°
2026-04-14 13:34 -29.54936 -54.68955 6496 ft 99 kts 343°
2026-04-14 13:34 -29.54292 -54.69235 6495 ft 99 kts 342°
2026-04-14 13:35 -29.53647 -54.69515 6495 ft 99 kts 342°
2026-04-14 13:35 -29.53000 -54.69796 6495 ft 100 kts 342°
2026-04-14 13:35 -29.52351 -54.70078 6493 ft 100 kts 342°
2026-04-14 13:35 -29.51701 -54.70360 6495 ft 100 kts 342°
2026-04-14 13:36 -29.51049 -54.70643 6495 ft 100 kts 342°
2026-04-14 13:36 -29.50397 -54.70926 6494 ft 101 kts 342°
2026-04-14 13:36 -29.49743 -54.71208 6494 ft 101 kts 342°
2026-04-14 13:36 -29.49094 -54.71508 6494 ft 101 kts 339°
2026-04-14 13:37 -29.48451 -54.71826 6494 ft 101 kts 339°
2026-04-14 13:37 -29.47807 -54.72147 6494 ft 101 kts 339°
2026-04-14 13:37 -29.47166 -54.72468 6494 ft 101 kts 338°
2026-04-14 13:37 -29.46523 -54.72789 6494 ft 101 kts 338°
2026-04-14 13:38 -29.45879 -54.73111 6494 ft 101 kts 338°
2026-04-14 13:38 -29.45237 -54.73432 6494 ft 101 kts 338°
2026-04-14 13:38 -29.44594 -54.73754 6494 ft 101 kts 338°
2026-04-14 13:38 -29.43951 -54.74076 6494 ft 101 kts 338°
2026-04-14 13:39 -29.43308 -54.74397 6494 ft 101 kts 338°
2026-04-14 13:39 -29.42664 -54.74719 6494 ft 101 kts 338°
2026-04-14 13:39 -29.42021 -54.75040 6494 ft 101 kts 338°
2026-04-14 13:39 -29.41377 -54.75362 6494 ft 101 kts 338°
2026-04-14 13:40 -29.40733 -54.75684 6494 ft 101 kts 338°
2026-04-14 13:40 -29.40091 -54.76005 6494 ft 101 kts 338°
2026-04-14 13:40 -29.39447 -54.76327 6494 ft 101 kts 338°
2026-04-14 13:40 -29.38803 -54.76648 6494 ft 101 kts 338°
2026-04-14 13:41 -29.38162 -54.76969 6494 ft 101 kts 338°
2026-04-14 13:41 -29.37517 -54.77291 6494 ft 101 kts 338°
2026-04-14 13:41 -29.36874 -54.77612 6494 ft 101 kts 338°
2026-04-14 13:41 -29.36231 -54.77932 6494 ft 101 kts 338°
2026-04-14 13:42 -29.35589 -54.78253 6494 ft 101 kts 338°
2026-04-14 13:42 -29.34946 -54.78575 6495 ft 101 kts 339°
2026-04-14 13:42 -29.34305 -54.78894 6490 ft 101 kts 339°
2026-04-14 13:42 -29.33663 -54.79214 6489 ft 101 kts 339°
2026-04-14 13:43 -29.33022 -54.79534 6488 ft 101 kts 339°
2026-04-14 13:43 -29.32383 -54.79853 6488 ft 100 kts 340°
2026-04-14 13:43 -29.31745 -54.80171 6488 ft 100 kts 340°
2026-04-14 13:43 -29.31107 -54.80489 6489 ft 100 kts 340°
2026-04-14 13:44 -29.30471 -54.80806 6489 ft 100 kts 340°
2026-04-14 13:44 -29.29835 -54.81123 6488 ft 100 kts 340°
2026-04-14 13:44 -29.29198 -54.81441 6488 ft 100 kts 340°
2026-04-14 13:44 -29.28561 -54.81758 6488 ft 100 kts 340°
2026-04-14 13:45 -29.27925 -54.82075 6487 ft 100 kts 340°
2026-04-14 13:45 -29.27290 -54.82391 6487 ft 100 kts 340°
2026-04-14 13:45 -29.26656 -54.82707 6486 ft 100 kts 339°
2026-04-14 13:45 -29.26017 -54.83025 6486 ft 100 kts 339°
2026-04-14 13:46 -29.25381 -54.83342 6492 ft 100 kts 339°
2026-04-14 13:46 -29.24743 -54.83660 6493 ft 100 kts 339°
2026-04-14 13:46 -29.24102 -54.83979 6494 ft 101 kts 339°
2026-04-14 13:46 -29.23465 -54.84296 6493 ft 101 kts 339°
2026-04-14 13:47 -29.22824 -54.84616 6498 ft 100 kts 341°
2026-04-14 13:47 -29.22187 -54.84932 6485 ft 100 kts 340°
2026-04-14 13:47 -29.21544 -54.85251 6476 ft 101 kts 339°
2026-04-14 13:47 -29.20905 -54.85570 6484 ft 100 kts 339°
2026-04-14 13:48 -29.20267 -54.85887 6486 ft 100 kts 339°
2026-04-14 13:48 -29.19627 -54.86205 6484 ft 101 kts 339°
2026-04-14 13:48 -29.18985 -54.86523 6481 ft 101 kts 339°
2026-04-14 13:48 -29.18345 -54.86841 6479 ft 101 kts 340°
2026-04-14 13:49 -29.17707 -54.87171 6481 ft 100 kts 339°
2026-04-14 13:49 -29.17076 -54.87508 6476 ft 100 kts 339°
2026-04-14 13:49 -29.16444 -54.87846 6473 ft 100 kts 339°
2026-04-14 13:49 -29.15814 -54.88184 6472 ft 100 kts 339°
2026-04-14 13:50 -29.15186 -54.88521 6472 ft 100 kts 339°
2026-04-14 13:50 -29.14560 -54.88857 6474 ft 100 kts 339°
2026-04-14 13:50 -29.13933 -54.89193 6475 ft 100 kts 339°
2026-04-14 13:50 -29.13308 -54.89529 6475 ft 100 kts 339°
2026-04-14 13:51 -29.12681 -54.89865 6475 ft 100 kts 339°
2026-04-14 13:51 -29.12052 -54.90202 6475 ft 100 kts 339°
2026-04-14 13:51 -29.11424 -54.90539 6475 ft 100 kts 339°
2026-04-14 13:51 -29.10797 -54.90875 6475 ft 100 kts 339°
2026-04-14 13:52 -29.10169 -54.91211 6475 ft 100 kts 338°
2026-04-14 13:52 -29.09539 -54.91549 6475 ft 100 kts 338°
2026-04-14 13:52 -29.08912 -54.91885 6475 ft 100 kts 338°
2026-04-14 13:52 -29.08282 -54.92223 6476 ft 100 kts 338°
2026-04-14 13:53 -29.07654 -54.92559 6476 ft 100 kts 338°
2026-04-14 13:53 -29.07027 -54.92895 6476 ft 100 kts 338°
2026-04-14 13:53 -29.06398 -54.93232 6476 ft 100 kts 339°
2026-04-14 13:53 -29.05768 -54.93569 6476 ft 100 kts 339°
2026-04-14 13:54 -29.05140 -54.93906 6476 ft 100 kts 339°
2026-04-14 13:54 -29.04512 -54.94242 6476 ft 100 kts 339°
2026-04-14 13:54 -29.03885 -54.94578 6476 ft 100 kts 339°
2026-04-14 13:54 -29.03259 -54.94913 6476 ft 100 kts 339°
2026-04-14 13:55 -29.02635 -54.95247 6476 ft 99 kts 339°
2026-04-14 13:55 -29.02010 -54.95581 6476 ft 99 kts 340°
2026-04-14 13:55 -29.01388 -54.95914 6475 ft 99 kts 340°
2026-04-14 13:55 -29.00767 -54.96245 6471 ft 100 kts 338°
2026-04-14 13:56 -29.00141 -54.96581 6475 ft 99 kts 340°
2026-04-14 13:56 -28.99527 -54.96910 6482 ft 97 kts 341°
2026-04-14 13:56 -28.98914 -54.97237 6474 ft 97 kts 341°
2026-04-14 13:56 -28.98304 -54.97563 6472 ft 97 kts 341°
2026-04-14 13:57 -28.97697 -54.97887 6471 ft 96 kts 341°
2026-04-14 13:57 -28.97095 -54.98209 6470 ft 96 kts 341°
2026-04-14 13:57 -28.96496 -54.98529 6471 ft 95 kts 341°
2026-04-14 13:57 -28.95901 -54.98847 6472 ft 95 kts 341°
2026-04-14 13:58 -28.95306 -54.99165 6472 ft 94 kts 341°
2026-04-14 13:58 -28.94713 -54.99481 6472 ft 94 kts 341°
2026-04-14 13:58 -28.94122 -54.99797 6472 ft 94 kts 341°
2026-04-14 13:58 -28.93532 -55.00112 6471 ft 94 kts 341°
2026-04-14 13:59 -28.92941 -55.00428 6472 ft 94 kts 341°
2026-04-14 13:59 -28.92352 -55.00742 6472 ft 94 kts 341°
2026-04-14 13:59 -28.91762 -55.01057 6472 ft 94 kts 341°
2026-04-14 13:59 -28.91172 -55.01372 6470 ft 94 kts 341°
2026-04-14 14:00 -28.90582 -55.01687 6472 ft 94 kts 341°
2026-04-14 14:00 -28.89992 -55.02002 6473 ft 94 kts 341°
2026-04-14 14:00 -28.89401 -55.02318 6473 ft 94 kts 341°
2026-04-14 14:00 -28.88810 -55.02633 6472 ft 94 kts 341°
2026-04-14 14:01 -28.88217 -55.02949 6472 ft 94 kts 341°
2026-04-14 14:01 -28.87623 -55.03266 6472 ft 94 kts 341°
2026-04-14 14:01 -28.87030 -55.03582 6472 ft 94 kts 341°
2026-04-14 14:01 -28.86436 -55.03899 6472 ft 95 kts 341°
2026-04-14 14:02 -28.85841 -55.04217 6473 ft 95 kts 341°
2026-04-14 14:02 -28.85246 -55.04534 6473 ft 95 kts 341°
2026-04-14 14:02 -28.84649 -55.04852 6473 ft 95 kts 341°
2026-04-14 14:02 -28.84053 -55.05170 6473 ft 95 kts 341°
2026-04-14 14:03 -28.83455 -55.05489 6473 ft 95 kts 341°
2026-04-14 14:03 -28.82857 -55.05807 6473 ft 95 kts 341°
2026-04-14 14:03 -28.82270 -55.06121 6487 ft 92 kts 342°
2026-04-14 14:03 -28.81688 -55.06429 6462 ft 93 kts 342°
2026-04-14 14:04 -28.81107 -55.06738 6455 ft 92 kts 342°
2026-04-14 14:04 -28.80534 -55.07044 6453 ft 91 kts 342°
2026-04-14 14:04 -28.79966 -55.07346 6453 ft 90 kts 342°
2026-04-14 14:04 -28.79403 -55.07646 6455 ft 89 kts 342°
2026-04-14 14:05 -28.78845 -55.07943 6465 ft 87 kts 341°
2026-04-14 14:05 -28.78303 -55.08231 6445 ft 87 kts 341°
2026-04-14 14:05 -28.77755 -55.08522 6428 ft 86 kts 341°
2026-04-14 14:05 -28.77217 -55.08809 6423 ft 85 kts 341°
2026-04-14 14:06 -28.76686 -55.09092 6424 ft 84 kts 342°
2026-04-14 14:06 -28.76160 -55.09372 6428 ft 83 kts 342°
2026-04-14 14:06 -28.75638 -55.09650 6430 ft 83 kts 342°
2026-04-14 14:06 -28.75116 -55.09927 6432 ft 83 kts 342°
2026-04-14 14:07 -28.74595 -55.10205 6432 ft 83 kts 342°
2026-04-14 14:07 -28.74073 -55.10482 6432 ft 83 kts 342°
2026-04-14 14:07 -28.73544 -55.10764 6429 ft 84 kts 342°
2026-04-14 14:07 -28.73018 -55.11044 6441 ft 84 kts 342°
2026-04-14 14:08 -28.72489 -55.11325 6444 ft 84 kts 342°
2026-04-14 14:08 -28.71959 -55.11607 6444 ft 85 kts 342°
2026-04-14 14:08 -28.71427 -55.11889 6442 ft 85 kts 342°
2026-04-14 14:08 -28.70892 -55.12173 6440 ft 85 kts 342°
2026-04-14 14:09 -28.70358 -55.12457 6439 ft 85 kts 342°
2026-04-14 14:09 -28.69824 -55.12741 6438 ft 85 kts 342°
2026-04-14 14:09 -28.69292 -55.13024 6438 ft 85 kts 342°
2026-04-14 14:09 -28.68758 -55.13307 6438 ft 85 kts 342°
2026-04-14 14:10 -28.68228 -55.13589 6438 ft 85 kts 342°
2026-04-14 14:10 -28.67696 -55.13872 6438 ft 84 kts 342°
2026-04-14 14:10 -28.67165 -55.14154 6437 ft 84 kts 342°
2026-04-14 14:10 -28.66634 -55.14436 6437 ft 84 kts 342°
2026-04-14 14:11 -28.66103 -55.14717 6437 ft 84 kts 342°
2026-04-14 14:11 -28.65573 -55.14999 6437 ft 84 kts 342°
2026-04-14 14:11 -28.65043 -55.15280 6439 ft 84 kts 342°
2026-04-14 14:11 -28.64517 -55.15559 6433 ft 84 kts 342°
2026-04-14 14:12 -28.63990 -55.15839 6429 ft 84 kts 342°
2026-04-14 14:12 -28.63464 -55.16118 6427 ft 83 kts 342°
2026-04-14 14:12 -28.62939 -55.16397 6428 ft 83 kts 342°
2026-04-14 14:12 -28.62418 -55.16673 6429 ft 83 kts 342°
2026-04-14 14:13 -28.61897 -55.16950 6431 ft 83 kts 342°
2026-04-14 14:13 -28.61376 -55.17226 6431 ft 83 kts 342°
2026-04-14 14:13 -28.60855 -55.17502 6431 ft 83 kts 342°
2026-04-14 14:13 -28.60333 -55.17779 6431 ft 83 kts 342°
2026-04-14 14:14 -28.59811 -55.18056 6431 ft 83 kts 342°
2026-04-14 14:14 -28.59288 -55.18333 6431 ft 83 kts 342°
2026-04-14 14:14 -28.58766 -55.18610 6431 ft 83 kts 342°
2026-04-14 14:14 -28.58244 -55.18887 6431 ft 83 kts 342°
2026-04-14 14:15 -28.57722 -55.19163 6431 ft 83 kts 342°
2026-04-14 14:15 -28.57201 -55.19440 6431 ft 83 kts 342°
2026-04-14 14:15 -28.56677 -55.19717 6431 ft 83 kts 342°
2026-04-14 14:15 -28.56155 -55.19994 6431 ft 83 kts 342°
2026-04-14 14:16 -28.55632 -55.20271 6431 ft 83 kts 342°
2026-04-14 14:16 -28.55109 -55.20548 6432 ft 83 kts 342°
2026-04-14 14:16 -28.54587 -55.20825 6432 ft 83 kts 342°
2026-04-14 14:17 -28.53541 -55.21378 6432 ft 83 kts 342°
2026-04-14 14:17 -28.53019 -55.21655 6432 ft 83 kts 342°
2026-04-14 14:17 -28.52495 -55.21932 6432 ft 83 kts 342°
2026-04-14 14:17 -28.51971 -55.22209 6432 ft 83 kts 342°
2026-04-14 14:18 -28.51448 -55.22486 6432 ft 83 kts 342°
2026-04-14 14:18 -28.50925 -55.22763 6432 ft 83 kts 342°
2026-04-14 14:18 -28.50401 -55.23040 6432 ft 83 kts 342°
2026-04-14 14:18 -28.49878 -55.23317 6432 ft 83 kts 342°
2026-04-14 14:19 -28.49354 -55.23593 6432 ft 83 kts 342°
2026-04-14 14:19 -28.48835 -55.23883 6432 ft 85 kts 334°
2026-04-14 14:19 -28.48370 -55.24304 6439 ft 86 kts 328°
2026-04-14 14:19 -28.47910 -55.24733 6435 ft 86 kts 328°
2026-04-14 14:20 -28.47447 -55.25166 6436 ft 86 kts 328°
2026-04-14 14:20 -28.46988 -55.25598 6430 ft 86 kts 328°
2026-04-14 14:20 -28.46527 -55.26032 6427 ft 86 kts 328°
2026-04-14 14:20 -28.46066 -55.26466 6425 ft 86 kts 328°
2026-04-14 14:21 -28.45609 -55.26897 6425 ft 86 kts 328°
2026-04-14 14:21 -28.45152 -55.27328 6426 ft 86 kts 328°
2026-04-14 14:21 -28.44695 -55.27758 6426 ft 85 kts 328°
2026-04-14 14:21 -28.44239 -55.28187 6426 ft 85 kts 328°
2026-04-14 14:22 -28.43782 -55.28618 6426 ft 85 kts 328°
2026-04-14 14:22 -28.43326 -55.29046 6425 ft 85 kts 328°
2026-04-14 14:22 -28.42871 -55.29475 6425 ft 85 kts 328°
2026-04-14 14:22 -28.42415 -55.29904 6425 ft 85 kts 328°
2026-04-14 14:23 -28.41960 -55.30333 6424 ft 85 kts 328°
2026-04-14 14:23 -28.41505 -55.30761 6424 ft 85 kts 328°
2026-04-14 14:23 -28.41050 -55.31189 6423 ft 85 kts 328°
2026-04-14 14:23 -28.40598 -55.31614 6425 ft 84 kts 328°
2026-04-14 14:24 -28.40145 -55.32040 6415 ft 85 kts 328°
2026-04-14 14:24 -28.39693 -55.32465 6412 ft 84 kts 328°
2026-04-14 14:24 -28.39243 -55.32889 6412 ft 84 kts 328°
2026-04-14 14:24 -28.38795 -55.33311 6413 ft 84 kts 328°
2026-04-14 14:25 -28.38346 -55.33732 6415 ft 84 kts 328°
2026-04-14 14:25 -28.37899 -55.34153 6419 ft 84 kts 328°
2026-04-14 14:25 -28.37451 -55.34575 6420 ft 84 kts 328°
2026-04-14 14:25 -28.37002 -55.34996 6419 ft 84 kts 328°
2026-04-14 14:26 -28.36553 -55.35418 6418 ft 84 kts 328°
2026-04-14 14:26 -28.36102 -55.35842 6417 ft 84 kts 328°
2026-04-14 14:26 -28.35653 -55.36264 6417 ft 84 kts 328°
2026-04-14 14:26 -28.35203 -55.36687 6417 ft 84 kts 328°
2026-04-14 14:27 -28.34754 -55.37109 6417 ft 84 kts 328°
2026-04-14 14:27 -28.34305 -55.37531 6417 ft 84 kts 328°
2026-04-14 14:27 -28.33856 -55.37952 6417 ft 84 kts 328°
2026-04-14 14:27 -28.33406 -55.38375 6416 ft 84 kts 328°
2026-04-14 14:28 -28.32958 -55.38796 6416 ft 84 kts 328°
2026-04-14 14:28 -28.32509 -55.39217 6416 ft 84 kts 328°
2026-04-14 14:28 -28.32060 -55.39638 6416 ft 84 kts 328°
2026-04-14 14:28 -28.31612 -55.40060 6416 ft 84 kts 328°
2026-04-14 14:29 -28.31163 -55.40480 6415 ft 84 kts 328°
2026-04-14 14:29 -28.30716 -55.40901 6415 ft 84 kts 328°
2026-04-14 14:29 -28.30267 -55.41322 6415 ft 84 kts 328°
2026-04-14 14:29 -28.29819 -55.41742 6411 ft 84 kts 328°
2026-04-14 14:30 -28.29370 -55.42162 6399 ft 84 kts 328°
2026-04-14 14:30 -28.28923 -55.42583 6416 ft 81 kts 328°
2026-04-14 14:30 -28.28502 -55.42981 6467 ft 77 kts 328°
2026-04-14 14:30 -28.28089 -55.43368 6496 ft 77 kts 328°
2026-04-14 14:31 -28.27671 -55.43758 6513 ft 79 kts 328°
2026-04-14 14:31 -28.27247 -55.44156 6517 ft 80 kts 328°
2026-04-14 14:31 -28.26813 -55.44561 6514 ft 82 kts 328°
2026-04-14 14:31 -28.26374 -55.44973 6509 ft 83 kts 328°
2026-04-14 14:32 -28.25932 -55.45388 6505 ft 83 kts 328°
2026-04-14 14:32 -28.25489 -55.45803 6504 ft 83 kts 328°
2026-04-14 14:32 -28.25046 -55.46218 6503 ft 83 kts 328°
2026-04-14 14:32 -28.24603 -55.46633 6502 ft 83 kts 328°
2026-04-14 14:33 -28.24160 -55.47048 6503 ft 83 kts 328°
2026-04-14 14:33 -28.23719 -55.47462 6503 ft 83 kts 328°
2026-04-14 14:33 -28.23278 -55.47875 6503 ft 83 kts 328°
2026-04-14 14:33 -28.22836 -55.48289 6503 ft 83 kts 328°
2026-04-14 14:34 -28.21952 -55.49116 6503 ft 83 kts 328°
2026-04-14 14:34 -28.21511 -55.49529 6503 ft 83 kts 328°
2026-04-14 14:34 -28.21068 -55.49944 6502 ft 83 kts 328°
2026-04-14 14:35 -28.20627 -55.50357 6504 ft 83 kts 328°
2026-04-14 14:35 -28.20186 -55.50770 6505 ft 83 kts 328°
2026-04-14 14:35 -28.19832 -55.51101 6505 ft 83 kts 328°
2026-04-14 14:35 -28.19372 -55.51532 6505 ft 83 kts 328°
2026-04-14 14:36 -28.18929 -55.51947 6505 ft 83 kts 328°
2026-04-14 14:36 -28.18486 -55.52361 6505 ft 83 kts 328°
2026-04-14 14:36 -28.18043 -55.52776 6505 ft 83 kts 328°
2026-04-14 14:36 -28.17600 -55.53190 6505 ft 83 kts 328°
2026-04-14 14:37 -28.17157 -55.53604 6505 ft 83 kts 328°
2026-04-14 14:37 -28.16713 -55.54019 6505 ft 83 kts 328°
2026-04-14 14:37 -28.16270 -55.54434 6505 ft 83 kts 328°
2026-04-14 14:37 -28.15827 -55.54848 6508 ft 82 kts 328°
2026-04-14 14:38 -28.15386 -55.55260 6500 ft 83 kts 328°
2026-04-14 14:38 -28.14944 -55.55673 6493 ft 83 kts 328°
2026-04-14 14:38 -28.14502 -55.56086 6490 ft 82 kts 328°
2026-04-14 14:38 -28.14064 -55.56495 6490 ft 82 kts 328°
2026-04-14 14:39 -28.13628 -55.56903 6490 ft 81 kts 328°
2026-04-14 14:39 -28.13194 -55.57309 6490 ft 81 kts 328°
2026-04-14 14:39 -28.12759 -55.57715 6490 ft 81 kts 328°
2026-04-14 14:39 -28.12326 -55.58120 6492 ft 80 kts 328°
2026-04-14 14:40 -28.11894 -55.58523 6482 ft 81 kts 328°
2026-04-14 14:40 -28.11462 -55.58927 6476 ft 81 kts 328°
2026-04-14 14:40 -28.11031 -55.59329 6474 ft 80 kts 328°
2026-04-14 14:40 -28.10602 -55.59730 6474 ft 80 kts 328°
2026-04-14 14:41 -28.10176 -55.60128 6476 ft 80 kts 328°
2026-04-14 14:41 -28.09751 -55.60524 6477 ft 79 kts 328°
2026-04-14 14:41 -28.09325 -55.60922 6478 ft 79 kts 328°
2026-04-14 14:41 -28.08901 -55.61318 6478 ft 79 kts 328°
2026-04-14 14:42 -28.08475 -55.61715 6477 ft 79 kts 328°
2026-04-14 14:42 -28.08049 -55.62112 6477 ft 79 kts 328°
2026-04-14 14:42 -28.07625 -55.62509 6477 ft 79 kts 328°
2026-04-14 14:42 -28.07200 -55.62905 6477 ft 79 kts 328°
2026-04-14 14:43 -28.06775 -55.63302 6478 ft 79 kts 328°
2026-04-14 14:43 -28.06349 -55.63699 6478 ft 79 kts 328°
2026-04-14 14:43 -28.05925 -55.64095 6478 ft 79 kts 328°
2026-04-14 14:43 -28.05500 -55.64491 6478 ft 79 kts 328°
2026-04-14 14:44 -28.05074 -55.64888 6478 ft 79 kts 328°
2026-04-14 14:44 -28.04650 -55.65283 6478 ft 79 kts 328°
2026-04-14 14:44 -28.04225 -55.65680 6478 ft 79 kts 328°
2026-04-14 14:44 -28.03800 -55.66076 6478 ft 79 kts 328°
2026-04-14 14:45 -28.03375 -55.66472 6478 ft 79 kts 328°
2026-04-14 14:45 -28.02950 -55.66868 6478 ft 79 kts 328°
2026-04-14 14:45 -28.02525 -55.67264 6478 ft 79 kts 328°
2026-04-14 14:45 -28.02100 -55.67660 6478 ft 79 kts 328°
2026-04-14 14:46 -28.01675 -55.68056 6478 ft 79 kts 328°
2026-04-14 14:46 -28.01250 -55.68452 6478 ft 79 kts 328°
2026-04-14 14:46 -28.00825 -55.68848 6478 ft 79 kts 328°
2026-04-14 14:46 -28.00400 -55.69244 6478 ft 79 kts 328°
2026-04-14 14:47 -27.99975 -55.69640 6479 ft 79 kts 328°
2026-04-14 14:47 -27.99549 -55.70037 6479 ft 79 kts 328°
2026-04-14 14:47 -27.99123 -55.70433 6479 ft 79 kts 328°
2026-04-14 14:47 -27.98699 -55.70828 6479 ft 79 kts 328°
2026-04-14 14:48 -27.98272 -55.71225 6479 ft 79 kts 328°
2026-04-14 14:48 -27.97846 -55.71622 6479 ft 79 kts 328°
2026-04-14 14:48 -27.97421 -55.72018 6479 ft 80 kts 328°
2026-04-14 14:48 -27.96995 -55.72414 6479 ft 80 kts 328°
2026-04-14 14:49 -27.96568 -55.72811 6480 ft 80 kts 328°
2026-04-14 14:49 -27.96142 -55.73208 6480 ft 80 kts 328°
2026-04-14 14:49 -27.95716 -55.73604 6480 ft 80 kts 328°
2026-04-14 14:49 -27.95289 -55.74001 6480 ft 80 kts 328°
2026-04-14 14:50 -27.94863 -55.74397 6480 ft 80 kts 328°
2026-04-14 14:50 -27.94437 -55.74794 6480 ft 80 kts 328°
2026-04-14 14:50 -27.94009 -55.75191 6477 ft 80 kts 328°
2026-04-14 14:50 -27.93584 -55.75587 6476 ft 79 kts 328°
2026-04-14 14:51 -27.93158 -55.75982 6477 ft 79 kts 328°
2026-04-14 14:51 -27.92732 -55.76378 6477 ft 79 kts 328°
2026-04-14 14:51 -27.92306 -55.76771 6477 ft 79 kts 328°
2026-04-14 14:51 -27.91823 -55.77005 6498 ft 74 kts 344°
2026-04-14 14:52 -27.91338 -55.77208 6499 ft 75 kts 344°
2026-04-14 14:52 -27.90840 -55.77402 6488 ft 77 kts 345°
2026-04-14 14:52 -27.90364 -55.77587 6481 ft 77 kts 343°
2026-04-14 14:52 -27.89865 -55.77857 6425 ft 83 kts 339°
2026-04-14 14:53 -27.89331 -55.78154 6319 ft 88 kts 339°
2026-04-14 14:53 -27.88769 -55.78468 6198 ft 92 kts 339°
2026-04-14 14:53 -27.88190 -55.78793 6066 ft 94 kts 339°
2026-04-14 14:53 -27.87600 -55.79125 5927 ft 96 kts 339°
2026-04-14 14:54 -27.87001 -55.79456 5784 ft 96 kts 340°
2026-04-14 14:54 -27.86397 -55.79787 5630 ft 99 kts 343°
2026-04-14 14:54 -27.85765 -55.80135 5483 ft 101 kts 343°
2026-04-14 14:54 -27.85139 -55.80482 5345 ft 98 kts 342°
2026-04-14 14:55 -27.84553 -55.80809 5153 ft 92 kts 343°
2026-04-14 14:55 -27.83997 -55.81120 4977 ft 88 kts 343°
2026-04-14 14:55 -27.83458 -55.81424 4811 ft 86 kts 343°
2026-04-14 14:55 -27.82931 -55.81724 4654 ft 84 kts 343°
2026-04-14 14:56 -27.81901 -55.82289 4379 ft 81 kts 344°
2026-04-14 14:56 -27.81397 -55.82566 4250 ft 80 kts 344°
2026-04-14 14:56 -27.80897 -55.82841 4124 ft 80 kts 344°
2026-04-14 14:57 -27.80399 -55.83114 3999 ft 79 kts 344°
2026-04-14 14:57 -27.79905 -55.83386 3874 ft 79 kts 344°
2026-04-14 14:57 -27.79411 -55.83657 3750 ft 79 kts 344°
2026-04-14 14:57 -27.78920 -55.83927 3627 ft 79 kts 344°
2026-04-14 14:58 -27.78428 -55.84197 3503 ft 79 kts 344°
2026-04-14 14:58 -27.77938 -55.84465 3380 ft 78 kts 344°
2026-04-14 14:58 -27.77448 -55.84734 3248 ft 81 kts 347°
2026-04-14 14:58 -27.76942 -55.85013 3163 ft 79 kts 346°
2026-04-14 14:59 -27.76473 -55.85277 3145 ft 73 kts 347°
2026-04-14 14:59 -27.76018 -55.85527 3183 ft 72 kts 347°
2026-04-14 14:59 -27.75562 -55.85776 3210 ft 74 kts 347°
2026-04-14 14:59 -27.75090 -55.86032 3219 ft 77 kts 347°
2026-04-14 15:00 -27.74603 -55.86304 3217 ft 79 kts 347°
2026-04-14 15:00 -27.74104 -55.86579 3210 ft 80 kts 347°
2026-04-14 15:00 -27.73601 -55.86855 3203 ft 81 kts 347°
2026-04-14 15:00 -27.73096 -55.87131 3199 ft 81 kts 347°
2026-04-14 15:01 -27.72592 -55.87407 3198 ft 81 kts 347°
2026-04-14 15:01 -27.72091 -55.87682 3199 ft 80 kts 347°
2026-04-14 15:01 -27.71589 -55.87958 3201 ft 80 kts 347°
2026-04-14 15:01 -27.71087 -55.88234 3201 ft 81 kts 347°
2026-04-14 15:02 -27.70584 -55.88510 3202 ft 81 kts 347°
2026-04-14 15:02 -27.70080 -55.88786 3201 ft 81 kts 347°
2026-04-14 15:02 -27.69580 -55.89061 3193 ft 80 kts 347°
2026-04-14 15:02 -27.69089 -55.89334 3190 ft 78 kts 347°
2026-04-14 15:03 -27.68605 -55.89604 3192 ft 77 kts 347°
2026-04-14 15:03 -27.68128 -55.89873 3196 ft 77 kts 347°
2026-04-14 15:03 -27.67653 -55.90141 3199 ft 77 kts 347°
2026-04-14 15:03 -27.67177 -55.90410 3201 ft 77 kts 347°
2026-04-14 15:04 -27.66701 -55.90679 3202 ft 77 kts 347°
2026-04-14 15:04 -27.66223 -55.90948 3201 ft 77 kts 347°
2026-04-14 15:04 -27.65744 -55.91218 3201 ft 77 kts 347°
2026-04-14 15:04 -27.65264 -55.91488 3199 ft 77 kts 347°
2026-04-14 15:05 -27.64785 -55.91757 3200 ft 77 kts 347°
2026-04-14 15:05 -27.64305 -55.92027 3201 ft 77 kts 347°
2026-04-14 15:05 -27.63825 -55.92297 3201 ft 77 kts 347°
2026-04-14 15:05 -27.63344 -55.92567 3201 ft 77 kts 347°
2026-04-14 15:06 -27.62862 -55.92837 3200 ft 78 kts 347°
2026-04-14 15:06 -27.62379 -55.93107 3201 ft 78 kts 347°
2026-04-14 15:06 -27.61896 -55.93378 3200 ft 78 kts 347°
2026-04-14 15:06 -27.61413 -55.93648 3199 ft 78 kts 347°
2026-04-14 15:07 -27.60931 -55.93918 3199 ft 78 kts 347°
2026-04-14 15:07 -27.60448 -55.94189 3199 ft 77 kts 347°
2026-04-14 15:07 -27.59968 -55.94458 3200 ft 77 kts 347°
2026-04-14 15:07 -27.59487 -55.94728 3201 ft 77 kts 347°
2026-04-14 15:08 -27.59007 -55.94996 3201 ft 77 kts 347°
2026-04-14 15:08 -27.58528 -55.95264 3201 ft 77 kts 347°
2026-04-14 15:08 -27.58049 -55.95535 3202 ft 78 kts 346°
2026-04-14 15:08 -27.57570 -55.95814 3202 ft 78 kts 346°
2026-04-14 15:09 -27.57090 -55.96091 3201 ft 78 kts 346°
2026-04-14 15:09 -27.56611 -55.96371 3202 ft 78 kts 346°
2026-04-14 15:09 -27.56131 -55.96641 3199 ft 76 kts 351°
2026-04-14 15:09 -27.55656 -55.96663 3224 ft 64 kts
2026-04-14 15:10 -27.55223 -55.96686 3224 ft 61 kts